Track QUETZAL-1 now! 10-day predictions QUETZAL-1 is classified as:
1 45598U 98067RL 21022.88775517 .00010340 00000-0 15972-3 0 9991 2 45598 51.6420 336.5049 0002675 146.6574 213.4586 15.54731637 41875